QPF
0.00 0.00 0.00 0.00 0.00 0.00 0.00 0.00 0.00 0.00 0.00 0.00 0.00 0.00 0.00 0.00 0.00 0.00 0.00 0.00 0.00 0.00 0.00 0.00 0.00 0.00 0.00 0.00 0.00 0.00 0.00 0.00 0.00 0.00 0.01 0.01 0.01 0.01 0.01 0.01 0.01 0.01 0.01 0.01
0.00 0.00 0.00 0.00 0.00 0.00 0.00 0.00 0.00 0.00 0.00 0.00 0.00 0.00 0.00 0.00 0.00 0.00 0.00 0.00 0.00 0.00 0.00 0.00 0.00 0.00 0.00 0.00 0.00 0.00 0.00 0.00 0.00 0.01 0.01 0.01 0.02 0.02 0.02 0.02 0.02 0.03 0.02 0.02
0.00 0.00 0.00 0.00 0.00 0.00 0.00 0.00 0.00 0.00 0.00 0.00 0.00 0.00 0.00 0.00 0.00 0.00 0.00 0.00 0.00 0.00 0.00 0.00 0.00 0.00 0.00 0.00 0.00 0.00 0.01 0.01 0.01 0.01 0.02 0.02 0.02 0.03 0.04 0.05 0.05 0.05 0.05 0.05
0.00 0.00 0.00 0.00 0.00 0.00 0.00 0.00 0.00 0.00 0.00 0.00 0.00 0.00 0.00 0.00 0.00 0.00 0.00 0.00 0.00 0.00 0.00 0.00 0.00 0.00 0.00 0.00 0.00 0.01 0.01 0.01 0.01 0.02 0.03 0.03 0.04 0.05 0.06 0.07 0.08 0.08 0.08 0.07
0.00 0.00 0.00 0.00 0.00 0.00 0.00 0.00 0.00 0.00 0.00 0.00 0.00 0.00 0.00 0.00 0.00 0.00 0.00 0.00 0.00 0.00 0.00 0.00 0.00 0.00 0.00 0.00 0.01 0.01 0.01 0.02 0.02 0.03 0.04 0.04 0.05 0.07 0.08 0.09 0.09 0.10 0.10 0.09
0.00 0.00 0.00 0.00 0.00 0.00 0.00 0.00 0.00 0.00 0.00 0.00 0.00 0.00 0.00 0.00 0.00 0.00 0.00 0.00 0.00 0.00 0.00 0.00 0.00 0.00 0.00 0.01 0.01 0.01 0.01 0.02 0.02 0.04 0.05 0.05 0.06 0.08 0.09 0.10 0.10 0.11 0.11 0.10
0.00 0.00 0.00 0.00 0.00 0.00 0.00 0.00 0.00 0.00 0.00 0.00 0.00 0.00 0.00 0.00 0.00 0.00 0.00 0.00 0.00 0.00 0.00 0.00 0.00 0.00 0.01 0.01 0.01 0.01 0.01 0.01 0.02 0.03 0.04 0.05 0.06 0.07 0.09 0.09 0.09 0.10 0.10 0.10
0.00 0.00 0.00 0.00 0.00 0.00 0.00 0.00 0.00 0.00 0.00 0.00 0.00 0.00 0.00 0.00 0.00 0.00 0.00 0.00 0.00 0.00 0.00 0.00 0.00 0.01 0.01 0.01 0.01 0.01 0.01 0.01 0.02 0.02 0.03 0.03 0.05 0.05 0.07 0.08 0.08 0.09 0.09 0.09
0.00 0.00 0.00 0.00 0.00 0.00 0.00 0.00 0.00 0.00 0.00 0.00 0.00 0.00 0.00 0.00 0.00 0.00 0.00 0.00 0.00 0.00 0.00 0.00 0.00 0.01 0.01 0.01 0.01 0.01 0.01 0.01 0.02 0.02 0.03 0.04 0.05 0.05 0.06 0.07 0.08 0.08 0.08 0.09
0.00 0.00 0.00 0.00 0.00 0.00 0.00 0.00 0.00 0.00 0.00 0.00 0.00 0.00 0.00 0.00 0.00 0.00 0.00 0.00 0.00 0.00 0.00 0.00 0.00 0.00 0.01 0.01 0.01 0.01 0.01 0.01 0.02 0.02 0.02 0.03 0.04 0.05 0.06 0.06 0.07 0.07 0.07 0.07
0.00 0.00 0.00 0.00 0.00 0.00 0.00 0.00 0.00 0.00 0.00 0.00 0.00 0.00 0.00 0.00 0.00 0.00 0.00 0.00 0.00 0.00 0.00 0.00 0.00 0.00 0.01 0.01 0.01 0.01 0.01 0.02 0.02 0.02 0.02 0.02 0.03 0.03 0.03 0.04 0.04 0.04 0.05 0.07
0.00 0.00 0.00 0.00 0.00 0.00 0.00 0.00 0.00 0.00 0.00 0.00 0.00 0.00 0.00 0.00 0.00 0.00 0.00 0.00 0.00 0.00 0.00 0.00 0.00 0.00 0.00 0.01 0.01 0.01 0.02 0.02 0.01 0.02 0.02 0.02 0.03 0.03 0.02 0.01 0.01 0.01 0.02 0.03
0.00 0.00 0.00 0.00 0.00 0.00 0.00 0.00 0.00 0.00 0.00 0.00 0.00 0.00 0.00 0.00 0.00 0.00 0.00 0.00 0.00 0.00 0.00 0.00 0.00 0.00 0.00 0.01 0.01 0.01 0.02 0.02 0.01 0.02 0.02 0.02 0.03 0.03 0.04 0.04 0.02 0.02 0.01 0.01
0.00 0.00 0.00 0.00 0.00 0.00 0.00 0.00 0.00 0.00 0.00 0.00 0.00 0.00 0.00 0.00 0.00 0.00 0.00 0.00 0.00 0.00 0.00 0.00 0.00 0.00 0.00 0.01 0.01 0.01 0.02 0.02 0.02 0.02 0.02 0.03 0.03 0.03 0.04 0.05 0.06 0.05 0.03 0.01
0.00 0.00 0.00 0.00 0.00 0.00 0.00 0.00 0.00 0.00 0.00 0.00 0.00 0.00 0.00 0.00 0.00 0.00 0.00 0.00 0.00 0.00 0.00 0.00 0.00 0.00 0.01 0.01 0.01 0.01 0.01 0.02 0.02 0.03 0.04 0.04 0.04 0.04 0.04 0.05 0.06 0.06 0.05 0.03
0.00 0.00 0.00 0.00 0.00 0.00 0.00 0.00 0.00 0.00 0.00 0.00 0.00 0.00 0.00 0.00 0.00 0.00 0.00 0.00 0.00 0.00 0.00 0.00 0.00 0.01 0.01 0.01 0.01 0.01 0.02 0.02 0.02 0.03 0.04 0.04 0.05 0.06 0.06 0.06 0.07 0.07 0.05 0.04
0.00 0.00 0.00 0.00 0.00 0.00 0.00 0.00 0.00 0.00 0.00 0.00 0.00 0.00 0.00 0.00 0.00 0.00 0.00 0.00 0.00 0.00 0.00 0.00 0.00 0.00 0.01 0.01 0.01 0.02 0.02 0.02 0.03 0.03 0.04 0.04 0.05 0.07 0.07 0.06 0.06 0.06 0.05 0.03
0.00 0.00 0.00 0.00 0.00 0.00 0.00 0.00 0.00 0.00 0.00 0.00 0.00 0.00 0.00 0.00 0.00 0.00 0.00 0.00 0.00 0.00 0.00 0.00 0.00 0.00 0.00 0.01 0.01 0.02 0.02 0.03 0.04 0.04 0.04 0.05 0.05 0.08 0.08 0.07 0.06 0.07 0.06 0.06
0.00 0.00 0.00 0.00 0.00 0.00 0.00 0.00 0.00 0.00 0.00 0.00 0.00 0.00 0.00 0.00 0.00 0.00 0.00 0.00 0.00 0.00 0.00 0.00 0.00 0.00 0.00 0.01 0.01 0.01 0.02 0.02 0.03 0.04 0.04 0.04 0.05 0.07 0.08 0.07 0.07 0.08 0.08 0.09
0.00 0.00 0.00 0.00 0.00 0.00 0.00 0.00 0.00 0.00 0.00 0.00 0.00 0.00 0.00 0.00 0.00 0.00 0.00 0.00 0.00 0.00 0.00 0.00 0.00 0.00 0.00 0.01 0.01 0.01 0.02 0.02 0.02 0.03 0.03 0.04 0.05 0.05 0.07 0.07 0.06 0.07 0.08 0.09
0.00 0.00 0.00 0.00 0.00 0.00 0.00 0.00 0.00 0.00 0.00 0.00 0.00 0.00 0.00 0.00 0.00 0.00 0.00 0.00 0.00 0.00 0.00 0.00 0.00 0.00 0.00 0.01 0.01 0.01 0.02 0.02 0.01 0.02 0.03 0.03 0.04 0.04 0.05 0.07 0.06 0.06 0.08 0.10
0.00 0.00 0.00 0.00 0.00 0.00 0.00 0.00 0.00 0.00 0.00 0.00 0.00 0.00 0.00 0.00 0.00 0.00 0.00 0.00 0.00 0.00 0.00 0.00 0.00 0.00 0.01 0.01 0.01 0.01 0.01 0.02 0.01 0.01 0.01 0.02 0.03 0.04 0.04 0.04 0.05 0.05 0.06 0.07
0.00 0.00 0.00 0.00 0.00 0.00 0.00 0.00 0.00 0.00 0.00 0.00 0.00 0.00 0.00 0.00 0.00 0.00 0.00 0.00 0.00 0.00 0.00 0.00 0.00 0.00 0.00 0.01 0.01 0.01 0.01 0.01 0.01 0.01 0.01 0.02 0.02 0.02 0.03 0.03 0.03 0.04 0.05 0.05
0.00 0.00 0.00 0.00 0.00 0.00 0.00 0.00 0.00 0.00 0.00 0.00 0.00 0.00 0.00 0.00 0.00 0.00 0.00 0.00 0.00 0.00 0.00 0.00 0.00 0.00 0.00 0.00 0.01 0.01 0.00 0.00 0.00 0.00 0.01 0.01 0.01 0.01 0.02 0.02 0.02 0.02 0.03 0.03
0.00 0.00 0.00 0.00 0.00 0.01 0.01 0.00 0.00 0.00 0.00 0.00 0.00 0.00 0.00 0.00 0.00 0.00 0.00 0.00 0.00 0.00 0.00 0.00 0.00 0.00 0.00 0.00 0.01 0.01 0.00 0.00 0.00 0.00 0.00 0.01 0.01 0.01 0.01 0.01 0.02 0.02 0.02 0.02
0.00 0.00 0.01 0.01 0.01 0.01 0.01 0.01 0.01 0.01 0.01 0.00 0.00 0.00 0.00 0.00 0.00 0.00 0.00 0.00 0.00 0.00 0.00 0.00 0.00 0.00 0.00 0.00 0.01 0.01 0.01 0.00 0.00 0.00 0.00 0.00 0.01 0.01 0.01 0.01 0.02 0.02 0.02 0.01
0.00 0.00 0.01 0.01 0.01 0.02 0.02 0.02 0.02 0.02 0.02 0.01 0.01 0.00 0.00 0.00 0.00 0.00 0.00 0.00 0.00 0.00 0.00 0.00 0.00 0.00 0.00 0.00 0.00 0.01 0.01 0.01 0.01 0.01 0.01 0.00 0.00 0.00 0.00 0.01 0.01 0.01 0.02 0.02
MSLP
1013.72 1013.90 1014.07 1014.21 1014.33 1014.40 1014.44 1014.43 1014.37 1014.28 1014.17 1014.05 1013.95 1013.88 1013.84 1013.83 1013.83 1013.84 1013.81 1013.74 1013.60 1013.40 1013.14 1012.83 1012.49 1012.13 1011.78 1011.44 1011.11 1010.79 1010.46 1010.12 1009.74 1009.32 1008.86 1008.36 1007.83 1007.29 1006.77 1006.27 1005.83 1005.45 1005.15 1004.93
1013.96 1014.16 1014.32 1014.43 1014.49 1014.50 1014.46 1014.38 1014.26 1014.13 1014.00 1013.89 1013.81 1013.76 1013.74 1013.74 1013.74 1013.72 1013.67 1013.57 1013.41 1013.18 1012.90 1012.59 1012.24 1011.89 1011.54 1011.20 1010.86 1010.52 1010.15 1009.76 1009.32 1008.84 1008.31 1007.75 1007.18 1006.60 1006.04 1005.53 1005.06 1004.67 1004.36 1004.13
1014.09 1014.29 1014.44 1014.51 1014.53 1014.48 1014.38 1014.25 1014.11 1013.97 1013.85 1013.76 1013.71 1013.69 1013.69 1013.70 1013.70 1013.66 1013.58 1013.43 1013.23 1012.96 1012.66 1012.32 1011.97 1011.62 1011.27 1010.92 1010.57 1010.19 1009.79 1009.34 1008.84 1008.29 1007.70 1007.09 1006.47 1005.86 1005.28 1004.76 1004.30 1003.91 1003.60 1003.37
1014.07 1014.26 1014.37 1014.41 1014.37 1014.29 1014.16 1014.01 1013.87 1013.75 1013.67 1013.63 1013.62 1013.65 1013.68 1013.70 1013.68 1013.62 1013.49 1013.29 1013.03 1012.72 1012.38 1012.02 1011.65 1011.29 1010.94 1010.58 1010.21 1009.81 1009.37 1008.87 1008.32 1007.71 1007.07 1006.40 1005.74 1005.11 1004.53 1004.01 1003.56 1003.19 1002.90 1002.68
1013.90 1014.03 1014.10 1014.09 1014.02 1013.91 1013.77 1013.63 1013.52 1013.44 1013.42 1013.43 1013.49 1013.56 1013.63 1013.66 1013.64 1013.54 1013.37 1013.12 1012.80 1012.44 1012.05 1011.66 1011.28 1010.91 1010.56 1010.20 1009.82 1009.40 1008.93 1008.40 1007.80 1007.15 1006.45 1005.75 1005.06 1004.41 1003.82 1003.32 1002.89 1002.55 1002.29 1002.11
1013.56 1013.63 1013.63 1013.58 1013.48 1013.36 1013.23 1013.12 1013.06 1013.04 1013.08 1013.17 1013.29 1013.41 1013.51 1013.55 1013.52 1013.39 1013.18 1012.88 1012.51 1012.10 1011.68 1011.27 1010.87 1010.50 1010.15 1009.80 1009.42 1009.00 1008.51 1007.95 1007.32 1006.63 1005.90 1005.16 1004.45 1003.80 1003.22 1002.73 1002.33 1002.03 1001.82 1001.67
1013.08 1013.07 1013.01 1012.92 1012.81 1012.70 1012.60 1012.54 1012.53 1012.58 1012.70 1012.85 1013.03 1013.19 1013.31 1013.36 1013.31 1013.16 1012.91 1012.57 1012.16 1011.72 1011.28 1010.85 1010.46 1010.09 1009.75 1009.41 1009.04 1008.62 1008.13 1007.55 1006.90 1006.18 1005.43 1004.67 1003.95 1003.29 1002.72 1002.26 1001.90 1001.65 1001.48 1001.39
1012.47 1012.39 1012.30 1012.20 1012.09 1012.01 1011.96 1011.96 1012.02 1012.14 1012.31 1012.52 1012.74 1012.93 1013.06 1013.10 1013.03 1012.86 1012.58 1012.21 1011.78 1011.33 1010.88 1010.46 1010.07 1009.72 1009.40 1009.07 1008.71 1008.29 1007.79 1007.20 1006.53 1005.80 1005.03 1004.26 1003.53 1002.88 1002.34 1001.91 1001.60 1001.39 1001.29 1001.25
1011.77 1011.66 1011.55 1011.46 1011.40 1011.37 1011.39 1011.46 1011.59 1011.77 1012.00 1012.24 1012.47 1012.66 1012.78 1012.81 1012.72 1012.52 1012.22 1011.84 1011.41 1010.96 1010.52 1010.11 1009.75 1009.42 1009.10 1008.78 1008.42 1007.99 1007.48 1006.88 1006.19 1005.43 1004.65 1003.88 1003.16 1002.53 1002.02 1001.63 1001.38 1001.23 1001.19 1001.21
1011.02 1010.90 1010.82 1010.78 1010.79 1010.84 1010.94 1011.10 1011.30 1011.53 1011.79 1012.04 1012.27 1012.44 1012.53 1012.52 1012.41 1012.18 1011.87 1011.49 1011.07 1010.64 1010.23 1009.85 1009.50 1009.18 1008.87 1008.54 1008.16 1007.70 1007.16 1006.52 1005.80 1005.03 1004.24 1003.47 1002.78 1002.18 1001.72 1001.39 1001.20 1001.12 1001.14 1001.22
1010.22 1010.14 1010.12 1010.16 1010.27 1010.42 1010.63 1010.87 1011.13 1011.41 1011.69 1011.94 1012.14 1012.27 1012.31 1012.26 1012.11 1011.87 1011.56 1011.19 1010.79 1010.39 1010.01 1009.66 1009.32 1009.00 1008.68 1008.31 1007.89 1007.38 1006.78 1006.10 1005.34 1004.54 1003.75 1002.99 1002.33 1001.78 1001.38 1001.13 1001.01 1001.00 1001.09 1001.22
1009.39 1009.37 1009.44 1009.59 1009.81 1010.08 1010.39 1010.72 1011.05 1011.37 1011.65 1011.88 1012.04 1012.12 1012.11 1012.02 1011.84 1011.58 1011.27 1010.92 1010.56 1010.20 1009.86 1009.52 1009.20 1008.86 1008.50 1008.08 1007.58 1007.00 1006.33 1005.57 1004.77 1003.94 1003.15 1002.42 1001.80 1001.32 1000.99 1000.82 1000.78 1000.85 1001.00 1001.17
1008.53 1008.58 1008.75 1009.01 1009.35 1009.74 1010.15 1010.57 1010.96 1011.30 1011.58 1011.79 1011.91 1011.94 1011.89 1011.76 1011.55 1011.30 1011.00 1010.69 1010.37 1010.05 1009.74 1009.42 1009.10 1008.73 1008.32 1007.82 1007.24 1006.56 1005.80 1004.98 1004.12 1003.27 1002.47 1001.77 1001.21 1000.81 1000.56 1000.48 1000.52 1000.66 1000.85 1001.05
1007.66 1007.78 1008.04 1008.40 1008.84 1009.33 1009.83 1010.32 1010.76 1011.13 1011.42 1011.61 1011.70 1011.69 1011.60 1011.45 1011.24 1010.99 1010.72 1010.45 1010.18 1009.91 1009.63 1009.33 1009.00 1008.60 1008.12 1007.55 1006.87 1006.10 1005.25 1004.35 1003.45 1002.58 1001.79 1001.13 1000.63 1000.30 1000.14 1000.14 1000.26 1000.45 1000.68 1000.89
1006.83 1007.00 1007.31 1007.74 1008.25 1008.82 1009.39 1009.93 1010.41 1010.81 1011.10 1011.29 1011.36 1011.34 1011.24 1011.08 1010.88 1010.65 1010.43 1010.20 1009.98 1009.76 1009.51 1009.23 1008.89 1008.46 1007.93 1007.29 1006.53 1005.67 1004.75 1003.79 1002.85 1001.97 1001.20 1000.59 1000.14 999.89 999.80 999.86 1000.03 1000.26 1000.50 1000.70
1006.11 1006.30 1006.62 1007.08 1007.63 1008.22 1008.83 1009.40 1009.91 1010.33 1010.64 1010.83 1010.91 1010.90 1010.80 1010.66 1010.49 1010.30 1010.12 1009.94 1009.77 1009.60 1009.39 1009.12 1008.78 1008.33 1007.77 1007.07 1006.25 1005.34 1004.37 1003.38 1002.42 1001.54 1000.80 1000.22 999.83 999.63 999.59 999.70 999.89 1000.13 1000.35 1000.52
1005.59 1005.74 1006.05 1006.48 1007.01 1007.61 1008.22 1008.80 1009.33 1009.76 1010.09 1010.30 1010.40 1010.41 1010.35 1010.23 1010.10 1009.96 1009.82 1009.70 1009.58 1009.44 1009.27 1009.03 1008.69 1008.24 1007.66 1006.94 1006.09 1005.16 1004.16 1003.16 1002.21 1001.35 1000.63 1000.09 999.73 999.56 999.55 999.66 999.85 1000.06 1000.25 1000.36
1005.32 1005.42 1005.65 1006.02 1006.50 1007.05 1007.63 1008.21 1008.73 1009.18 1009.53 1009.77 1009.90 1009.95 1009.92 1009.85 1009.76 1009.66 1009.57 1009.49 1009.41 1009.31 1009.17 1008.95 1008.64 1008.20 1007.62 1006.91 1006.07 1005.14 1004.16 1003.18 1002.24 1001.41 1000.72 1000.20 999.86 999.69 999.66 999.75 999.90 1000.06 1000.18 1000.23
1005.35 1005.35 1005.49 1005.76 1006.16 1006.64 1007.16 1007.70 1008.21 1008.67 1009.03 1009.31 1009.48 1009.57 1009.59 1009.56 1009.51 1009.45 1009.40 1009.35 1009.29 1009.22 1009.10 1008.91 1008.62 1008.21 1007.66 1006.98 1006.17 1005.28 1004.34 1003.40 1002.50 1001.69 1001.02 1000.50 1000.15 999.95 999.89 999.92 1000.00 1000.08 1000.12 1000.10
1005.60 1005.50 1005.53 1005.69 1005.98 1006.37 1006.83 1007.32 1007.81 1008.26 1008.65 1008.95 1009.16 1009.30 1009.36 1009.37 1009.35 1009.32 1009.28 1009.25 1009.21 1009.16 1009.06 1008.89 1008.63 1008.25 1007.75 1007.11 1006.36 1005.53 1004.64 1003.75 1002.89 1002.11 1001.44 1000.92 1000.54 1000.29 1000.16 1000.10 1000.09 1000.09 1000.05 999.95
1005.97 1005.77 1005.68 1005.73 1005.91 1006.21 1006.60 1007.04 1007.50 1007.94 1008.34 1008.67 1008.91 1009.08 1009.18 1009.23 1009.24 1009.22 1009.21 1009.18 1009.15 1009.10 1009.01 1008.87 1008.64 1008.30 1007.85 1007.27 1006.59 1005.82 1005.00 1004.15 1003.33 1002.57 1001.91 1001.36 1000.93 1000.62 1000.40 1000.26 1000.16 1000.06 999.94 999.79
1006.33 1006.02 1005.83 1005.77 1005.85 1006.06 1006.38 1006.77 1007.20 1007.63 1008.03 1008.38 1008.66 1008.87 1009.00 1009.08 1009.11 1009.12 1009.11 1009.09 1009.06 1009.02 1008.95 1008.82 1008.62 1008.33 1007.93 1007.42 1006.81 1006.10 1005.34 1004.55 1003.76 1003.02 1002.35 1001.76 1001.28 1000.90 1000.61 1000.38 1000.19 1000.01 999.83 999.63
1006.51 1006.12 1005.84 1005.69 1005.69 1005.82 1006.07 1006.42 1006.82 1007.24 1007.65 1008.02 1008.33 1008.56 1008.73 1008.84 1008.90 1008.93 1008.94 1008.93 1008.92 1008.89 1008.84 1008.74 1008.57 1008.33 1007.99 1007.54 1006.99 1006.35 1005.65 1004.90 1004.15 1003.42 1002.73 1002.12 1001.59 1001.15 1000.78 1000.48 1000.22 999.99 999.76 999.54
1006.43 1005.97 1005.62 1005.41 1005.33 1005.40 1005.60 1005.91 1006.28 1006.70 1007.11 1007.50 1007.83 1008.11 1008.31 1008.46 1008.56 1008.62 1008.66 1008.69 1008.70 1008.70 1008.68 1008.62 1008.50 1008.30 1008.02 1007.63 1007.15 1006.57 1005.93 1005.23 1004.50 1003.78 1003.10 1002.46 1001.90 1001.41 1000.98 1000.63 1000.32 1000.06 999.82 999.59
1006.06 1005.55 1005.15 1004.88 1004.76 1004.79 1004.95 1005.22 1005.58 1005.98 1006.41 1006.81 1007.18 1007.49 1007.74 1007.94 1008.09 1008.20 1008.29 1008.37 1008.43 1008.48 1008.50 1008.49 1008.42 1008.29 1008.06 1007.74 1007.32 1006.81 1006.22 1005.56 1004.87 1004.17 1003.49 1002.85 1002.27 1001.75 1001.30 1000.91 1000.59 1000.31 1000.07 999.86
1005.45 1004.92 1004.49 1004.19 1004.03 1004.03 1004.16 1004.42 1004.76 1005.16 1005.58 1006.00 1006.40 1006.75 1007.06 1007.32 1007.53 1007.71 1007.87 1008.02 1008.15 1008.26 1008.35 1008.40 1008.40 1008.33 1008.17 1007.92 1007.56 1007.11 1006.57 1005.97 1005.33 1004.66 1004.00 1003.37 1002.78 1002.26 1001.80 1001.41 1001.08 1000.81 1000.58 1000.39
1004.74 1004.19 1003.75 1003.44 1003.27 1003.25 1003.36 1003.60 1003.93 1004.32 1004.75 1005.19 1005.62 1006.01 1006.37 1006.69 1006.98 1007.24 1007.49 1007.71 1007.92 1008.11 1008.28 1008.40 1008.47 1008.47 1008.38 1008.20 1007.91 1007.53 1007.05 1006.51 1005.91 1005.29 1004.67 1004.06 1003.50 1002.99 1002.55 1002.16 1001.84 1001.58 1001.36 1001.19
Thickness
5737 5738 5735 5729 5725 5721 5716 5710 5704 5700 5698 5702 5697 5689 5681 5674 5668 5660 5653 5645 5637 5630 5624 5617 5612 5606 5602 5597 5592 5587 5581 5576 5571 5566 5560 5554 5548 5543 5538 5535 5533 5533 5535 5539
5731 5732 5730 5723 5722 5717 5712 5709 5705 5701 5700 5703 5694 5685 5677 5670 5661 5654 5646 5639 5632 5625 5618 5612 5606 5600 5595 5590 5585 5579 5573 5568 5562 5555 5549 5542 5536 5529 5524 5520 5517 5516 5517 5521
5728 5730 5722 5717 5723 5716 5712 5711 5704 5696 5696 5698 5688 5679 5671 5663 5655 5647 5639 5632 5626 5619 5613 5606 5601 5594 5589 5583 5578 5572 5566 5559 5553 5546 5539 5532 5525 5518 5512 5507 5503 5502 5503 5506
5726 5718 5701 5722 5732 5723 5712 5709 5709 5702 5699 5693 5684 5677 5670 5662 5650 5641 5634 5627 5621 5614 5609 5603 5596 5589 5583 5576 5570 5565 5559 5553 5545 5538 5532 5524 5517 5510 5503 5497 5493 5492 5493 5495
5722 5717 5719 5723 5721 5717 5706 5705 5710 5700 5694 5688 5684 5673 5674 5660 5647 5637 5629 5622 5615 5608 5603 5597 5590 5584 5577 5570 5565 5559 5554 5546 5538 5531 5525 5518 5511 5504 5498 5491 5487 5485 5486 5488
5719 5703 5700 5720 5724 5719 5705 5698 5707 5697 5688 5682 5674 5666 5665 5655 5644 5635 5626 5618 5611 5604 5598 5592 5585 5577 5570 5565 5560 5554 5548 5539 5532 5525 5520 5514 5507 5500 5494 5488 5484 5482 5483 5485
5717 5710 5721 5726 5721 5710 5692 5696 5699 5694 5684 5676 5667 5660 5656 5650 5640 5631 5622 5615 5608 5600 5593 5586 5579 5571 5565 5560 5555 5549 5542 5535 5528 5522 5517 5512 5506 5499 5492 5487 5483 5480 5481 5483
5715 5706 5712 5722 5715 5706 5704 5704 5697 5689 5681 5672 5664 5659 5652 5644 5635 5626 5619 5612 5604 5596 5589 5582 5574 5567 5561 5556 5551 5545 5539 5533 5527 5522 5517 5513 5506 5500 5494 5488 5484 5482 5482 5483
5724 5721 5723 5726 5721 5718 5710 5701 5694 5686 5679 5670 5661 5654 5648 5639 5630 5622 5614 5608 5600 5592 5585 5577 5570 5562 5557 5553 5548 5542 5537 5532 5527 5523 5518 5513 5507 5502 5497 5492 5488 5486 5484 5484
5720 5728 5726 5723 5720 5714 5707 5698 5692 5683 5675 5666 5657 5651 5643 5634 5626 5618 5611 5604 5596 5588 5580 5574 5567 5561 5555 5551 5545 5539 5535 5531 5528 5525 5520 5515 5509 5505 5500 5496 5492 5490 5488 5487
5717 5724 5722 5720 5717 5713 5705 5697 5688 5680 5671 5662 5653 5645 5638 5630 5622 5614 5607 5600 5592 5583 5576 5570 5565 5559 5555 5550 5544 5538 5535 5532 5529 5526 5522 5517 5513 5507 5502 5498 5492 5489 5490 5489
5719 5728 5720 5719 5718 5712 5701 5692 5684 5675 5667 5660 5651 5641 5634 5626 5618 5610 5603 5596 5589 5581 5574 5568 5563 5558 5554 5549 5543 5538 5536 5533 5530 5527 5524 5521 5517 5513 5503 5496 5489 5485 5484 5484
5731 5731 5727 5721 5714 5707 5699 5691 5682 5672 5662 5654 5647 5638 5630 5622 5615 5607 5600 5593 5586 5578 5571 5566 5561 5557 5552 5547 5543 5540 5536 5534 5531 5528 5527 5524 5521 5517 5512 5503 5492 5488 5486 5485
5730 5722 5716 5713 5709 5702 5695 5687 5679 5669 5660 5651 5643 5635 5627 5619 5612 5605 5598 5591 5584 5576 5570 5565 5560 5556 5551 5547 5544 5542 5540 5537 5534 5532 5530 5527 5523 5520 5517 5512 5507 5502 5492 5486
5725 5719 5716 5713 5706 5698 5690 5681 5671 5664 5657 5648 5640 5631 5623 5616 5609 5602 5596 5589 5582 5575 5569 5564 5558 5554 5550 5547 5545 5544 5543 5540 5538 5536 5533 5531 5527 5524 5520 5515 5510 5506 5503 5495
5724 5716 5711 5705 5698 5692 5684 5675 5667 5661 5653 5644 5636 5628 5620 5613 5607 5601 5595 5588 5580 5574 5567 5562 5557 5553 5549 5547 5546 5546 5545 5542 5539 5540 5538 5535 5531 5526 5521 5516 5511 5507 5505 5502
5717 5709 5704 5698 5695 5689 5681 5673 5666 5658 5650 5640 5632 5624 5617 5610 5605 5599 5592 5585 5577 5571 5566 5560 5554 5550 5549 5548 5546 5547 5547 5547 5544 5543 5541 5537 5533 5528 5522 5517 5512 5508 5505 5501
5719 5715 5710 5703 5696 5687 5678 5671 5662 5654 5645 5637 5628 5621 5614 5607 5601 5596 5590 5583 5577 5571 5566 5558 5551 5548 5549 5549 5547 5548 5548 5548 5547 5546 5544 5541 5535 5529 5524 5520 5516 5512 5508 5504
5711 5708 5705 5698 5692 5684 5675 5666 5658 5650 5641 5632 5623 5616 5610 5604 5598 5592 5587 5581 5576 5571 5564 5556 5548 5549 5550 5549 5546 5549 5550 5550 5550 5549 5547 5542 5539 5534 5528 5524 5520 5516 5512 5509
5699 5698 5695 5689 5682 5675 5668 5660 5652 5643 5634 5626 5618 5612 5606 5601 5595 5589 5584 5580 5575 5565 5556 5551 5548 5549 5548 5547 5544 5549 5550 5551 5551 5552 5552 5549 5545 5539 5534 5529 5524 5522 5519 5516
5686 5685 5682 5677 5671 5666 5661 5654 5646 5637 5629 5621 5614 5608 5602 5597 5592 5586 5582 5579 5571 5560 5552 5549 5548 5545 5544 5541 5544 5549 5549 5551 5552 5553 5553 5552 5548 5544 5540 5536 5532 5529 5528 5525
5671 5671 5669 5666 5662 5657 5652 5646 5639 5631 5624 5617 5610 5605 5599 5593 5589 5584 5579 5573 5565 5554 5550 5550 5546 5539 5537 5538 5544 5546 5546 5548 5550 5551 5552 5552 5550 5548 5546 5543 5539 5537 5535 5534
5654 5655 5654 5653 5651 5648 5644 5639 5633 5625 5619 5613 5607 5601 5596 5590 5586 5581 5577 5570 5561 5550 5547 5547 5538 5535 5533 5540 5541 5542 5543 5545 5548 5550 5551 5552 5552 5551 5550 5548 5545 5543 5542 5541
5637 5639 5640 5640 5640 5637 5633 5631 5626 5619 5613 5608 5604 5598 5591 5588 5584 5580 5572 5563 5554 5547 5548 5542 5535 5533 5534 5538 5537 5537 5539 5541 5544 5547 5550 5552 5553 5554 5553 5551 5549 5549 5547 5547
5622 5624 5626 5626 5626 5627 5625 5620 5617 5612 5606 5602 5599 5593 5588 5583 5578 5573 5566 5561 5553 5546 5547 5542 5535 5532 5535 5534 5532 5533 5534 5535 5537 5541 5546 5549 5551 5553 5553 5552 5551 5551 5551 5551
5608 5611 5614 5615 5616 5617 5617 5615 5612 5609 5604 5598 5595 5590 5585 5579 5572 5567 5562 5559 5553 5545 5543 5540 5536 5532 5531 5529 5527 5527 5528 5530 5535 5538 5540 5544 5548 5549 5551 5551 5551 5552 5551 5551
5597 5601 5604 5607 5610 5611 5611 5609 5606 5603 5599 5594 5589 5585 5579 5574 5568 5563 5558 5554 5549 5544 5539 5535 5531 5528 5525 5523 5522 5521 5522 5523 5527 5531 5534 5538 5541 5545 5547 5549 5551 5551 5551 5551